Simultaneous Nadir Overpasses (SNOs) Predictions

Prediction of SNOs between AQUA and METOP-B Satellite Orbit:

Table of predicted SNOs for the next 14.0 days since TLE Epoch: 7/25/2014
Index Date (AQUA) Time (AQUA) Lat,Lon (AQUA) SZA (AQUA ) Date (METOP-B) Time (METOP-B) Lat,Lon (METOP-B) SZA (METOP-B ) Distance(km) Time Diff (sec)
1 07/27/2014 10:40:33 73.55, 14.75 54.41 07/27/2014 10:39:22 73.44, 13.70 54.37 34.98 71
2 07/27/2014 11:30:03 -73.78,-178.12 125.33 07/27/2014 11:29:57 -73.80,-178.16 125.31 2.01 6
3 07/27/2014 12:19:32 73.85, -10.64 54.76 07/27/2014 12:20:35 73.87, -10.64 54.77 2.23 63
4 07/30/2014 06:14:53 73.68, 80.88 55.22 07/30/2014 06:13:40 73.66, 80.61 55.22 8.86 73
5 07/30/2014 07:04:21 -73.81,-111.75 124.64 07/30/2014 07:04:19 -73.82,-111.70 124.63 2.30 2
6 07/30/2014 07:53:50 73.88, 55.72 55.45 07/30/2014 07:54:57 73.89, 55.80 55.45 2.85 67
7 08/02/2014 01:49:10 73.73, 147.21 55.96 08/02/2014 01:48:00 73.73, 147.16 55.98 1.71 70
8 08/02/2014 02:38:37 -73.80, -45.30 123.96 08/02/2014 02:38:41 -73.80, -45.36 123.95 1.80 4
9 08/02/2014 03:28:06 73.87, 122.16 56.14 08/02/2014 03:29:19 73.86, 122.13 56.12 2.14 73
10 08/04/2014 21:23:27 73.73,-146.36 56.70 08/04/2014 21:22:22 73.74,-146.40 56.73 2.43 65
11 08/04/2014 22:12:54 -73.79, 21.14 123.22 08/04/2014 22:13:03 -73.82, 21.09 123.20 2.91 9
12 08/04/2014 23:02:26 74.03,-171.76 57.05 08/04/2014 23:03:37 74.07,-170.95 57.04 24.99 71
13 08/07/2014 16:57:44 73.74, -79.96 57.48 08/07/2014 16:56:44 73.76, -79.97 57.51 2.15 60
14 08/07/2014 17:47:11 -73.80, 87.55 122.44 08/07/2014 17:47:25 -73.83, 87.54 122.41 3.69 14




NCC Satellite Simultaneous Nadir Overpasses (SNOs) Prediction Service
